CHINASAT 9 (ZX 9)

Last updated on May 21, 2019, 3:10 a.m. UTC

1 33051U 08028A   19139.89769130 -.00000258  00000-0  00000-0 0  9992
2 33051   0.0132 314.2924 0003896 110.5559 227.7921  1.00273009 40115
UTC
Height (km)
Latitude
Longitude
Inclination
Orbital Period
UTC large
Height (km)
Speed (km/s)
/
Latitude / Longitude
Inclination (degrees)
Orbital Period (minutes)
Azimuth
Elevation
Range (km)
Doppler Factor
iOS Compass Heading
iOS Angle

Next 30 passes for location: Hong Kong

Rise time Rise Azimuth (degrees) Set time Set Azimuth (degrees) Duration Max altitude (degrees)

No matching passes for this satellites